Location: Bishopstone
(51.0167°N, 1.9000°W)
Time: 01:32:47
(UTC+00:00)

COSMOS 2487 - Pass Details

Date: 16 September 2019
Orbit: 445 x 448 km, 74.7° (Epoch: 19 October)

Event Time Altitude Azimuth Distance (km) Brightness Sun altitude
Rises 19:07:41 0° 222° (SW) 2,445 6.5 -8.2°
Reaches altitude 10° 19:09:52 10° 231° (SW) 1,579 5.7 -8.5°
Maximum altitude 19:13:06 36° 300° (WNW) 739 4.3 -9.0°
Drops below altitude 10° 19:16:22 10° 9° (N) 1,592 5.3 -9.5°
Sets 19:18:35 0° 18° (NNE) 2,469 6.1 -9.8°
